Jerome, ID

11:46 PM MST on December 05, 2016 (GMT -0700)
Jerome County

Weather History for KJER - January, 2013

Change the Weather History Date:

Friday, January 11, 2013

  Actual Average Record
Temperature  
Mean Temperature 16 °F 26 °F  
Max Temperature 21 °F 33 °F 53 °F (1995)
Min Temperature 12 °F 20 °F -16 °F (1949)
Degree Days  
Heating Degree Days 48 39  
Month to date heating degree days 429  
Since 1 July heating degree days 3159  
Cooling Degree Days 0 0  
Month to date cooling degree days 0  
Year to date cooling degree days 0  
Moisture  
Dew Point 15 °F    
Average Humidity 88    
Maximum Humidity 96    
Minimum Humidity 77    
Precipitation  
Precipitation 0.00 in 0.04 in 1.06 in (1979)
Month to date precipitation 0.56  
Year to date precipitation 0.56  
Sea Level Pressure  
Sea Level Pressure 29.84 in    
Wind  
Wind Speed 23 mph (WSW)    
Max Wind Speed 30 mph    
Max Gust Speed 44 mph    
Visibility 6 miles    
Events Snow    
T = Trace of Precipitation, MM = Missing Value Source: NWS Daily Summary

Daily Weather History Graph

Daily Weather History Graph

Search for Another Location

Airport or City:

Trip Planner

Search our weather history database for the weather conditions in past years. The results will help you decide how hot, cold, wet, or windy it might be!

Date:

Astronomy

Jan. 11, 2013 Rise Set
Actual Time 8:06 AM MST 5:25 PM MST
Civil Twilight 7:35 AM MST 5:56 PM MST
Nautical Twilight 7:00 AM MST 6:31 PM MST
Astronomical Twilight 6:26 AM MST 7:05 PM MST
Moon 7:42 AM MST (1/11) 5:49 PM MST (1/11)
Length of Visible Light 10h 21m
Length of Day
9h 18m
Waning Crescent, 0% of the Moon is Illuminated
Jan 11
Waning Crescent
Jan 11
New
Jan 18
First Quarter
Jan 26
Full
Feb 3
Last Quarter

Hourly Weather History & Observations

Time (MST) Temp. Windchill Dew Point Humidity Pressure Visibility Wind Dir Wind Speed Gust Speed Precip Events Conditions
12:05 AM 21.2 °F 3.0 °F 17.6 °F 86% 29.63 in 1.5 mi WSW 29.9 mph 39.1 mph 0.00 in Snow Light Snow
12:53 AM 21.0 °F 3.9 °F 18.0 °F 88% 29.73 in 1.8 mi SW 25.3 mph 34.5 mph 0.00 in Snow Light Snow
1:19 AM 21.2 °F 3.9 °F 19.4 °F 93% 29.62 in 1.2 mi WSW 26.5 mph 35.7 mph 0.00 in Snow Light Snow
1:53 AM 21.0 °F 3.3 °F 19.0 °F 92% 29.72 in 2.0 mi WSW 27.6 mph 38.0 mph 0.00 in Snow Light Snow
2:00 AM 21.2 °F 3.0 °F 19.4 °F 93% 29.62 in 1.8 mi WSW 29.9 mph 38.0 mph 0.00 in Snow Light Snow
2:10 AM 21.2 °F 4.2 °F 19.4 °F 93% 29.62 in 2.5 mi WSW 25.3 mph 43.7 mph 0.00 in Snow Light Snow
2:17 AM 21.2 °F 3.3 °F 17.6 °F 86% 29.62 in 3.0 mi WSW 28.8 mph 43.7 mph 0.00 in   Overcast
2:53 AM 21.0 °F 3.6 °F 18.0 °F 88% 29.72 in 5.0 mi WSW 26.5 mph 36.8 mph 0.00 in   Overcast
3:53 AM 19.9 °F 2.2 °F 18.0 °F 92% 29.72 in 2.5 mi WSW 26.5 mph 36.8 mph 0.00 in Snow Light Snow
4:06 AM 19.4 °F 1.8 °F 17.6 °F 93% 29.62 in 1.5 mi WSW 25.3 mph 34.5 mph 0.00 in Snow Light Snow
4:53 AM 19.9 °F 3.5 °F 18.0 °F 92% 29.71 in 1.2 mi WSW 21.9 mph 33.4 mph 0.00 in Snow Light Snow
5:05 AM 19.4 °F 2.1 °F 17.6 °F 93% 29.61 in 3.0 mi WSW 24.2 mph 32.2 mph 0.00 in Snow Light Snow
5:38 AM 19.4 °F 2.8 °F 17.6 °F 93% 29.62 in 2.0 mi West 21.9 mph 34.5 mph 0.00 in Snow Light Snow
5:53 AM 19.9 °F 2.8 °F 18.0 °F 92% 29.73 in 1.0 mi West 24.2 mph 33.4 mph 0.00 in Snow Light Snow
6:53 AM 19.9 °F 2.8 °F 18.0 °F 92% 29.75 in 1.5 mi WSW 24.2 mph 32.2 mph 0.00 in Snow Light Snow
7:09 AM 19.4 °F 3.2 °F 17.6 °F 93% 29.65 in 2.0 mi WSW 20.7 mph 31.1 mph 0.00 in Snow Light Snow
7:22 AM 19.4 °F 1.8 °F 17.6 °F 93% 29.66 in 4.0 mi West 25.3 mph 31.1 mph 0.00 in Snow Light Snow
7:53 AM 19.9 °F 3.9 °F 18.0 °F 92% 29.79 in 4.0 mi WSW 20.7 mph 31.1 mph 0.00 in Snow Light Snow
8:53 AM 19.9 °F 4.3 °F 19.0 °F 96% 29.83 in 4.0 mi WSW 19.6 mph - 0.00 in Snow Light Snow
9:53 AM 19.9 °F 4.3 °F 18.0 °F 92% 29.85 in 10.0 mi WSW 19.6 mph 26.5 mph 0.00 in   Overcast
10:44 AM 19.4 °F 2.8 °F 17.6 °F 93% 29.76 in 2.0 mi WSW 21.9 mph 31.1 mph 0.00 in Snow Light Snow
10:53 AM 19.9 °F 3.9 °F 18.0 °F 92% 29.87 in 3.0 mi WSW 20.7 mph 28.8 mph 0.00 in Snow Light Snow
11:53 AM 21.0 °F 3.6 °F 17.1 °F 85% 29.89 in 9.0 mi WSW 26.5 mph 32.2 mph 0.00 in   Overcast
12:13 PM 21.2 °F 4.5 °F 17.6 °F 86% 29.77 in 10.0 mi West 24.2 mph 32.2 mph 0.00 in   Overcast
1:33 PM 21.2 °F 3.3 °F 15.8 °F 80% 29.78 in 10.0 mi WSW 28.8 mph 35.7 mph N/A   Scattered Clouds
1:53 PM 19.9 °F 3.9 °F 15.1 °F 81% 29.90 in 10.0 mi WSW 20.7 mph 32.2 mph N/A   Scattered Clouds
2:53 PM 19.9 °F 2.8 °F 15.1 °F 81% 29.93 in 10.0 mi WSW 24.2 mph 33.4 mph N/A   Overcast
3:53 PM 19.0 °F 2.7 °F 12.9 °F 77% 29.98 in 10.0 mi WSW 20.7 mph - N/A   Overcast
4:53 PM 18.0 °F 2.6 °F 12.0 °F 78% 30.01 in 10.0 mi WSW 17.3 mph - N/A   Mostly Cloudy
5:36 PM 17.6 °F 4.3 °F 12.2 °F 79% 29.89 in 10.0 mi WSW 12.7 mph - N/A   Mostly Cloudy
5:53 PM 17.1 °F 3.6 °F 12.0 °F 81% 30.03 in 10.0 mi West 12.7 mph - N/A   Overcast
6:53 PM 17.1 °F 4.3 °F 12.9 °F 84% 30.05 in 10.0 mi WSW 11.5 mph - N/A   Overcast
7:26 PM 17.6 °F 3.2 °F 12.2 °F 79% 29.92 in 10.0 mi WSW 15.0 mph - N/A   Overcast
7:51 PM 17.6 °F 4.3 °F 12.2 °F 79% 29.93 in 9.0 mi WSW 12.7 mph - 0.00 in Snow Light Snow
7:53 PM 17.1 °F 4.3 °F 14.0 °F 88% 30.06 in 9.0 mi WSW 11.5 mph - 0.00 in Snow Light Snow
8:40 PM 15.8 °F 4.2 °F 14.0 °F 93% 29.94 in 6.0 mi WSW 9.2 mph - 0.00 in Snow Light Snow
8:53 PM 16.0 °F 4.4 °F 14.0 °F 92% 30.08 in 8.0 mi WSW 9.2 mph - 0.00 in Snow Light Snow
9:06 PM 15.8 °F 7.2 °F 14.0 °F 93% 29.95 in 9.0 mi SW 5.8 mph - 0.00 in   Overcast
9:38 PM 14.0 °F -3.4 °F 10.4 °F 86% 29.97 in 2.0 mi East 19.6 mph 24.2 mph 0.00 in Snow Light Snow
9:53 PM 14.0 °F -2.0 °F 10.9 °F 88% 30.12 in 2.0 mi East 16.1 mph - 0.00 in Snow Light Snow
10:03 PM 14.0 °F -0.8 °F 10.4 °F 86% 29.98 in 3.0 mi East 13.8 mph - 0.00 in Snow Light Snow
10:35 PM 12.2 °F -4.3 °F 8.6 °F 85% 30.00 in 7.0 mi East 16.1 mph - 0.00 in Snow Light Snow
10:53 PM 12.9 °F -3.9 °F 8.1 °F 81% 30.14 in 9.0 mi East 17.3 mph - 0.00 in Snow Light Snow
11:53 PM 12.0 °F -2.7 °F 8.1 °F 84% 30.15 in 10.0 mi East 12.7 mph - 0.00 in   Overcast